Warrenton, VA

9:12 AM EDT on July 28, 2017 (GMT -0400)
Warrenton

Weather History for KHWY - November, 2013

Change the Weather History Date:

Thursday, November 14, 2013

  Actual Average (KHEF) Record (KHEF)
Temperature  
Mean Temperature 38 °F -  
Max Temperature 59 °F 54 °F 73 °F (1999)
Min Temperature 18 °F 31 °F 17 °F (2013)
Degree Days  
Heating Degree Days 26    
Moisture  
Dew Point 26 °F    
Average Humidity 75    
Maximum Humidity 100    
Minimum Humidity 30    
Precipitation  
Precipitation 0.00 in - - ()
Sea Level Pressure  
Sea Level Pressure 30.30 in    
Wind  
Wind Speed 1 mph (South)    
Max Wind Speed 7 mph    
Max Gust Speed -    
Visibility 10 miles    
Events      
Averages and records for this station are not official NWS values.
T = Trace of Precipitation, MM = Missing Value Source: NWS Daily Summary

Daily Weather History Graph

Daily Weather History Graph

Search for Another Location

Airport or City:

Trip Planner

Search our weather history database for the weather conditions in past years. The results will help you decide how hot, cold, wet, or windy it might be!

Date:

Astronomy

Nov. 14, 2013 Rise Set
Actual Time 6:51 AM EST 4:58 PM EST
Civil Twilight 6:23 AM EST 5:26 PM EST
Nautical Twilight 5:51 AM EST 5:58 PM EST
Astronomical Twilight 5:20 AM EST 6:29 PM EST
Moon 3:16 PM EST (11/14) 3:47 AM EST (11/14)
Length of Visible Light 11h 02m
Length of Day
10h 06m
Waxing Gibbous, 91% of the Moon is Illuminated
Nov 14
Waxing Gibbous
Nov 17
Full
Nov 25
Last Quarter
Dec 2
New
Dec 9
First Quarter

Hourly Weather History & Observations

Time (EST) Temp. Windchill Dew Point Humidity Pressure Visibility Wind Dir Wind Speed Gust Speed Precip Events Conditions
12:15 AM 22.1 °F - 21.4 °F 97% 30.39 in 10.0 mi Calm Calm - N/A   Clear
12:35 AM 20.5 °F - 20.5 °F 100% 30.38 in 10.0 mi Calm Calm - N/A   Clear
12:55 AM 20.7 °F - 20.7 °F 100% 30.38 in 10.0 mi Calm Calm - N/A   Clear
1:15 AM 21.4 °F - 21.4 °F 100% 30.36 in 10.0 mi Calm Calm - N/A   Clear
1:35 AM 20.8 °F - 20.8 °F 100% 30.37 in 10.0 mi Calm Calm - N/A   Clear
1:55 AM 21.2 °F - 21.2 °F 100% 30.36 in 10.0 mi Calm Calm - N/A   Clear
2:15 AM 20.5 °F - 20.5 °F 100% 30.36 in 10.0 mi Calm Calm - N/A   Clear
2:35 AM 19.9 °F - 19.9 °F 100% 30.36 in 10.0 mi Calm Calm - N/A   Clear
2:55 AM 19.0 °F - 19.0 °F 100% 30.35 in 10.0 mi Calm Calm - N/A   Clear
3:15 AM 21.2 °F - 21.0 °F 99% 30.35 in 10.0 mi Calm Calm - N/A   Clear
3:35 AM 20.5 °F - 20.5 °F 100% 30.34 in 10.0 mi Calm Calm - N/A   Clear
3:55 AM 19.8 °F - 19.8 °F 100% 30.34 in 10.0 mi Calm Calm - N/A   Clear
4:15 AM 19.9 °F - 19.9 °F 100% 30.33 in 10.0 mi Calm Calm - N/A   Clear
4:35 AM 19.8 °F - 19.8 °F 100% 30.34 in 10.0 mi Calm Calm - N/A   Clear
4:55 AM 19.9 °F - 19.9 °F 100% 30.33 in 10.0 mi Calm Calm - N/A   Clear
5:15 AM 20.3 °F - 20.3 °F 100% 30.33 in 10.0 mi Calm Calm - N/A   Clear
5:35 AM 19.9 °F - 19.9 °F 100% 30.33 in 10.0 mi Calm Calm - N/A   Clear
5:55 AM 19.2 °F - 19.2 °F 100% 30.33 in 10.0 mi Calm Calm - N/A   Clear
6:15 AM 19.8 °F - 19.8 °F 100% 30.34 in 10.0 mi Calm Calm - N/A   Clear
6:35 AM 18.9 °F - 18.9 °F 100% 30.34 in 10.0 mi Calm Calm - N/A   Clear
6:55 AM 19.8 °F - 19.8 °F 100% 30.35 in 10.0 mi Calm Calm - N/A   Clear
7:15 AM 19.8 °F - 19.8 °F 100% 30.36 in 10.0 mi Calm Calm - N/A   Clear
7:35 AM 22.1 °F - 22.1 °F 100% 30.35 in 10.0 mi Calm Calm - N/A   Clear
7:55 AM 25.9 °F - 25.2 °F 97% 30.35 in 10.0 mi Calm Calm - N/A   Clear
8:15 AM 28.4 °F - 26.4 °F 92% 30.36 in 10.0 mi Calm Calm - N/A   Clear
8:35 AM 30.0 °F - 26.4 °F 86% 30.36 in 10.0 mi Calm Calm - N/A   Clear
8:55 AM 32.0 °F - 27.0 °F 82% 30.36 in 10.0 mi Calm Calm - N/A   Clear
9:15 AM 34.2 °F - 27.9 °F 78% 30.36 in 10.0 mi Calm Calm - N/A   Clear
9:35 AM 36.9 °F - 28.9 °F 73% 30.36 in 10.0 mi Calm Calm - N/A   Clear
9:55 AM 38.8 °F - 28.6 °F 67% 30.35 in 10.0 mi Calm Calm - N/A   Clear
10:15 AM 41.5 °F - 29.8 °F 63% 30.34 in 10.0 mi Calm Calm - N/A   Clear
10:35 AM 45.1 °F 43.7 °F 29.3 °F 54% 30.35 in 10.0 mi SW 3.5 mph - N/A   Clear
10:55 AM 46.4 °F - 27.5 °F 48% 30.33 in 10.0 mi Calm Calm - N/A   Clear
11:15 AM 48.6 °F - 28.4 °F 46% 30.33 in 10.0 mi South 4.6 mph - N/A   Clear
11:35 AM 49.8 °F - 28.9 °F 45% 30.33 in 10.0 mi SSW 4.6 mph - N/A   Clear
11:55 AM 51.1 °F - 29.8 °F 44% 30.31 in 10.0 mi South 3.5 mph - N/A   Clear
12:15 PM 52.9 °F - 30.0 °F 42% 30.30 in 10.0 mi South 4.6 mph - N/A   Clear
12:35 PM 54.5 °F - 28.4 °F 37% 30.29 in 10.0 mi South 4.6 mph - N/A   Clear
12:55 PM 56.3 °F - 29.3 °F 36% 30.28 in 10.0 mi SW 5.8 mph - N/A   Clear
1:15 PM 57.7 °F - 28.6 °F 33% 30.28 in 10.0 mi SW 6.9 mph - N/A   Clear
1:35 PM 58.5 °F - 28.4 °F 32% 30.27 in 10.0 mi South 5.8 mph - N/A   Clear
1:55 PM 57.6 °F - 27.7 °F 32% 30.26 in 10.0 mi SSE 3.5 mph - N/A   Clear
2:15 PM 58.5 °F - 28.2 °F 32% 30.26 in 10.0 mi South 4.6 mph - N/A   Clear
2:35 PM 59.4 °F - 28.0 °F 30% 30.25 in 10.0 mi South 6.9 mph - N/A   Clear
2:55 PM 58.3 °F - 27.5 °F 31% 30.25 in 10.0 mi South 6.9 mph - N/A   Clear
3:15 PM 58.1 °F - 27.9 °F 32% 30.25 in 10.0 mi South 4.6 mph - N/A   Clear
3:35 PM 57.7 °F - 28.6 °F 33% 30.25 in 10.0 mi SSW 5.8 mph - N/A   Clear
3:55 PM 58.3 °F - 29.3 °F 33% 30.25 in 10.0 mi Calm Calm - N/A   Clear
4:15 PM 57.7 °F - 29.5 °F 34% 30.25 in 10.0 mi South 4.6 mph - N/A   Clear
4:35 PM 56.3 °F - 29.1 °F 35% 30.24 in 10.0 mi Calm Calm - N/A   Clear
4:55 PM 52.0 °F - 28.0 °F 40% 30.25 in 10.0 mi SSE 3.5 mph - N/A   Clear
5:15 PM 46.2 °F - 27.9 °F 49% 30.25 in 10.0 mi Calm Calm - N/A   Clear
5:35 PM 45.7 °F 44.4 °F 27.5 °F 49% 30.25 in 10.0 mi SSE 3.5 mph - N/A   Clear
5:55 PM 45.7 °F 44.4 °F 26.8 °F 48% 30.25 in 10.0 mi SSE 3.5 mph - N/A   Clear
6:15 PM 44.8 °F 43.3 °F 27.0 °F 50% 30.25 in 10.0 mi SSE 3.5 mph - N/A   Clear
6:35 PM 36.9 °F - 28.0 °F 70% 30.24 in 10.0 mi Calm Calm - N/A   Clear
6:55 PM 34.9 °F - 28.9 °F 79% 30.24 in 10.0 mi Calm Calm - N/A   Clear
7:15 PM 32.2 °F - 28.4 °F 86% 30.24 in 10.0 mi Calm Calm - N/A   Clear
7:35 PM 33.3 °F - 28.6 °F 83% 30.24 in 10.0 mi Calm Calm - N/A   Clear
7:55 PM 34.2 °F - 28.8 °F 81% 30.23 in 10.0 mi Calm Calm - N/A   Clear
8:15 PM 31.8 °F - 29.1 °F 90% 30.23 in 10.0 mi Calm Calm - N/A   Clear
8:35 PM 31.3 °F - 28.4 °F 89% 30.24 in 10.0 mi Calm Calm - N/A   Clear
8:55 PM 29.8 °F - 27.0 °F 89% 30.24 in 10.0 mi Calm Calm - N/A   Clear
9:15 PM 29.5 °F - 28.2 °F 95% 30.23 in 10.0 mi Calm Calm - N/A   Clear
9:35 PM 30.7 °F - 28.9 °F 93% 30.23 in 10.0 mi Calm Calm - N/A   Clear
9:55 PM 28.4 °F - 28.0 °F 99% 30.23 in 10.0 mi Calm Calm - N/A   Clear
10:15 PM 26.6 °F - 25.7 °F 96% 30.23 in 10.0 mi Calm Calm - N/A   Clear
10:35 PM 28.6 °F - 27.7 °F 96% 30.22 in 10.0 mi Calm Calm - N/A   Clear
10:55 PM 26.4 °F - 26.1 °F 99% 30.22 in 10.0 mi Calm Calm - N/A   Clear
11:15 PM 27.3 °F - 26.8 °F 98% 30.22 in 10.0 mi Calm Calm - N/A   Clear
11:35 PM 29.1 °F - 28.0 °F 96% 30.22 in 10.0 mi Calm Calm - N/A   Clear
11:55 PM 26.2 °F - 25.7 °F 98% 30.22 in 10.0 mi Calm Calm - N/A   Clear